Location: Las Palmas - Juarez
(26.2012°N, 97.7379°W)
Time: 11:50:19
(UTC+00:00)

Vanguard 1 Rocket - All Passes

Search period start: 17 December 2025 00:00
Search period end: 27 December 2025 00:00
Orbit: 651 x 4216 km, 34.3° (Epoch: 16 December)

Date Brightness Start Highest point End Pass type
(mag) Time Alt. Az. Time Alt. Az. Time Alt. Az.
17 Dec - 09:38:45 10° SW 09:45:49 36° SSE 09:50:23 10° E visible
17 Dec - 12:05:50 10° W 12:10:43 49° NNW 12:15:00 10° ENE visible
17 Dec - 14:32:06 10° WNW 14:36:14 35° N 14:41:46 10° ENE daylight
17 Dec - 16:56:01 10° WNW 17:01:44 89° SSW 17:12:28 10° ESE daylight
17 Dec - 19:20:59 10° W 19:28:41 33° SSW 19:42:03 10° SSE daylight
18 Dec - 08:25:48 10° SSW 08:33:04 23° SSE 08:37:54 10° ESE night (unlit)
18 Dec - 10:52:17 10° WSW 10:58:41 88° NNW 11:03:09 10° ENE visible
18 Dec - 13:19:49 10° WNW 13:23:48 31° N 13:28:08 10° ENE daylight
18 Dec - 15:44:30 10° WNW 15:49:20 59° NNE 15:57:13 10° E daylight
18 Dec - 18:08:36 10° W 18:15:10 47° SSW 18:27:25 10° SE daylight
18 Dec - 20:37:09 10° WSW 20:43:48 16° SSW 20:52:51 10° S daylight
19 Dec - 07:13:39 10° S 07:19:42 15° SSE 07:24:12 10° ESE night (unlit)
19 Dec - 09:38:29 10° SW 09:46:30 53° SSE 09:51:23 10° ENE visible
19 Dec - 12:06:40 10° W 12:11:29 40° NNW 12:15:38 10° ENE visible
19 Dec - 14:32:52 10° WNW 14:37:02 38° NNE 14:42:34 10° E daylight
19 Dec - 16:56:46 10° WNW 17:02:20 70° SSW 17:12:32 10° SE daylight
19 Dec - 19:22:37 10° WSW 19:29:28 24° SSW 19:40:17 10° SSE daylight
20 Dec - 08:24:42 10° SSW 08:33:52 34° SSE 08:39:20 10° E night (unlit)
20 Dec - 10:52:49 10° WSW 10:59:20 66° NNW 11:03:49 10° ENE visible
20 Dec - 13:20:41 10° WNW 13:24:40 30° N 13:28:54 10° ENE daylight
20 Dec - 15:45:12 10° WNW 15:49:59 74° NNE 15:57:46 10° ESE daylight
20 Dec - 18:09:43 10° W 18:15:53 34° SSW 18:26:33 10° SSE daylight
20 Dec - 20:43:56 10° SSW 20:44:49 10° SSW 20:45:45 10° SSW daylight
21 Dec - 07:11:16 10° SSW 07:20:35 23° SSE 07:26:36 10° ESE night (unlit)
21 Dec - 09:38:29 10° WSW 09:47:09 74° SSE 09:52:13 10° ENE visible
21 Dec - 12:07:33 10° WNW 12:12:17 34° N 12:16:19 10° ENE visible
21 Dec - 14:33:34 10° WNW 14:37:48 44° NNE 14:43:24 10° E daylight
21 Dec - 16:57:38 10° WNW 17:02:59 52° SSW 17:12:23 10° SE daylight
21 Dec - 19:24:59 10° WSW 19:30:21 16° SSW 19:37:46 10° S daylight
22 Dec - 05:58:53 10° S 06:06:36 16° SSE 06:12:19 10° ESE visible
22 Dec - 08:24:01 10° SW 08:34:35 47° SSE 08:40:26 10° E night (unlit)
22 Dec - 10:53:28 10° W 11:00:02 52° NNW 11:04:30 10° ENE visible
22 Dec - 13:21:28 10° WNW 13:25:32 32° N 13:29:46 10° ENE daylight
22 Dec - 15:45:54 10° WNW 15:50:37 85° SSW 15:58:09 10° ESE daylight
22 Dec - 18:11:11 10° WSW 18:16:41 24° SSW 18:25:16 10° SSE daylight
23 Dec - 07:09:42 10° SSW 07:21:24 33° SSE 07:28:11 10° E night (unlit)
23 Dec - 09:38:44 10° WSW 09:47:47 85° NNW 09:52:58 10° ENE visible
23 Dec - 12:08:24 10° WNW 12:13:07 32° N 12:17:05 10° ENE visible
23 Dec - 14:34:13 10° WNW 14:38:32 56° NNE 14:44:10 10° E daylight
23 Dec - 16:58:39 10° W 17:03:41 36° SSW 17:11:55 10° SE daylight
24 Dec - 05:55:58 10° SSW 06:07:30 23° SSE 06:14:58 10° ESE visible
24 Dec - 08:23:39 10° SW 08:35:14 63° SSE 08:41:21 10° ENE night (unlit)
24 Dec - 10:54:13 10° W 11:00:45 44° NNW 11:05:12 10° ENE visible
24 Dec - 13:22:09 10° WNW 13:26:21 36° N 13:30:41 10° ENE daylight
24 Dec - 15:46:41 10° WNW 15:51:17 61° SSW 15:58:21 10° SE daylight
24 Dec - 18:13:19 10° WSW 18:17:33 16° SSW 18:23:16 10° S daylight
25 Dec - 04:43:46 10° S 04:52:49 15° SSE 04:59:41 10° ESE visible
25 Dec - 07:08:34 10° SW 07:22:07 44° SSE 07:29:23 10° E visible
25 Dec - 09:39:07 10° WSW 09:48:24 68° NNW 09:53:40 10° ENE visible
25 Dec - 12:09:12 10° WNW 12:13:59 32° N 12:17:56 10° ENE visible
25 Dec - 14:34:51 10° WNW 14:39:13 75° NNE 14:44:50 10° ESE daylight
25 Dec - 16:59:58 10° W 17:04:27 25° SSW 17:11:07 10° SSE daylight
26 Dec - 05:53:55 10° SSW 06:08:17 31° SSE 06:16:43 10° E visible
26 Dec - 08:23:30 10° WSW 08:35:50 81° SSE 08:42:08 10° ENE night (unlit)
26 Dec - 10:54:58 10° W 11:01:31 39° NNW 11:05:56 10° ENE visible
26 Dec - 13:22:47 10° WNW 13:27:09 43° NNE 13:31:35 10° E daylight
26 Dec - 15:47:35 10° W 15:51:57 41° SSW 15:58:19 10° SE daylight
